Find Starlink 11413

NORAD ID: 62593 Int'l Des: 2025-008 Owner: SPXS Country: US Constellation: starlink operational
LEOCIRCULAR

Current View

Loading 3D Globe...

About Starlink 11413

Starlink 11413 (NORAD 62593) is a starlink constellation satellite (v2 mini d2c) launched Jan 13, 2025 by SPXS of US. It operates in LEO, CIRCULAR orbit with a mass of 960.00 kg.

About Starlink 11413

Description loading...

Upcoming Passes

Passes for default location (London). Set your location on the main map for personalized predictions.

Altitude History

Loading altitude history...

Two-Line Element Set

1 62593U 25008G 26167.51433369 .00098143 00000-0 75961-3 0 9992
2 62593 42.9990 250.7628 0001631 249.0134 111.0559 15.70831532 82720
Epoch: Jun 16, 2026 • Age: 42 hours

Current Status

Altitude 359.5 km
Velocity 7.70 km/s
Sub-Earth Point 42.32°N, 38.15°W
Launch Date Jan 13, 2025
Age 1.4 years
Type internet

Technical Details

Classification Payload
Mass 960.00 kg
Dry Mass 910.00 kg
Total Mass 960.00 kg
Length 0.30 m
Diameter 4.10 m
Span 29.00 m
Shape Box + pan
Manufacturer SPXS
Bus Type Starlink V2MD
Phase Status In Orbit
Owner/State SPXS/US

Most Searched